Location: Northcutt
(34.7304°N, 84.4305°W)
Time: 02:56:22
(UTC+00:00)

Transit 2A Rocket - Pass Details

Date: 05 October 2022
Orbit: 588 x 912 km, 66.7° (Epoch: 08 December)

Event Time Altitude Azimuth Distance (km) Brightness Sun altitude
Rises 19:21:49 0° 340° (NNW) 3,047 7.9 41.9°
Reaches altitude 10° 19:24:09 10° 347° (NNW) 2,177 7.2 41.5°
Maximum altitude 19:28:56 46° 60° (ENE) 1,007 5.7 40.9°
Drops below altitude 10° 19:34:08 10° 133° (SE) 2,375 7.7 40.2°
Sets 19:36:46 0° 140° (SE) 3,355 8.4 39.8°
